Richmond (NSW), Australia

8:18 PM AEST on May 28, 2017 (GMT +1000)
Richmond (Military)

Weather History for YSRI - March, 2014

Change the Weather History Date:

Thursday, March 13, 2014

  Actual Average Record
Temperature  
Mean Temperature 73 °F -  
Max Temperature 80 °F 78 °F - ()
Min Temperature 66 °F 57 °F - ()
Cooling Degree Days 8    
Growing Degree Days 23 (Base 50)    
Moisture  
Dew Point 63 °F    
Average Humidity 76    
Maximum Humidity 100    
Minimum Humidity 51    
Precipitation  
Precipitation 0.00 in 0.12 in - ()
Sea Level Pressure  
Sea Level Pressure 30.07 in    
Wind  
Wind Speed 6 mph ()    
Max Wind Speed 10 mph    
Max Gust Speed -    
Visibility 6.1 miles    
Events      
T = Trace of Precipitation, MM = Missing Value Source: Averaged Metar Reports

Daily Weather History Graph

Daily Weather History Graph

Search for Another Location

Airport or City:

Trip Planner

Search our weather history database for the weather conditions in past years. The results will help you decide how hot, cold, wet, or windy it might be!

Date:

Astronomy

Mar. 13, 2014 Rise Set
Actual Time 6:54 AM AEDT 7:18 PM AEDT
Civil Twilight 6:29 AM AEDT 7:43 PM AEDT
Nautical Twilight 6:00 AM AEDT 8:12 PM AEDT
Astronomical Twilight 5:30 AM AEDT 8:41 PM AEDT
Moon 5:05 PM AEDT (3/13) 3:31 AM AEDT (3/13)
Length of Visible Light 13h 13m
Length of Day
12h 23m
Waxing Gibbous, 88% of the Moon is Illuminated
Mar 13
Waxing Gibbous
Mar 17
Full
Mar 24
Last Quarter
Mar 31
New
Apr 7
First Quarter

Hourly Weather History & Observations

Time (AEDT) Temp. Heat Index Dew Point Humidity Pressure Visibility Wind Dir Wind Speed Gust Speed Precip Events Conditions
12:00 AM 69.8 °F - 66.2 °F 88% 30.06 in 6.2 mi SW 8.1 mph - N/A   Mostly Cloudy
12:21 AM 69.8 °F - 66.2 °F 88% 30.06 in 3.7 mi SSW 8.1 mph - N/A   Mostly Cloudy
12:30 AM 69.8 °F - 66.2 °F 88% 30.06 in - SSW 8.1 mph - N/A   Mostly Cloudy
12:53 AM 69.8 °F - 66.2 °F 88% 30.06 in 6.2 mi South 3.5 mph - N/A   Overcast
1:00 AM 69.8 °F - 66.2 °F 88% 30.06 in 6.2 mi SSE 2.3 mph - N/A   Overcast
1:30 AM 69.8 °F - 66.2 °F 88% 30.06 in 6.2 mi SSW 5.8 mph - N/A   Overcast
2:00 AM 69.8 °F - 66.2 °F 88% 30.06 in 6.2 mi South 9.2 mph - N/A   Overcast
2:30 AM 69.8 °F - 66.2 °F 88% 30.06 in 6.2 mi South 9.2 mph - N/A   Overcast
3:01 AM 68.0 °F - 66.2 °F 94% 30.06 in 6.2 mi South 9.2 mph - N/A   Overcast
3:19 AM 68.0 °F - 68.0 °F 100% 30.06 in 6.2 mi South 5.8 mph - N/A   Overcast
3:30 AM 68.0 °F - 66.2 °F 94% 30.06 in 6.2 mi SSE 5.8 mph - N/A   Overcast
4:00 AM 68.0 °F - 62.6 °F 83% 30.09 in 6.2 mi South 9.2 mph - N/A   Overcast
4:30 AM 68.0 °F - 62.6 °F 83% 30.09 in 6.2 mi South 8.1 mph - N/A   Overcast
5:00 AM 68.0 °F - 60.8 °F 78% 30.09 in 6.2 mi SSW 6.9 mph - N/A   Overcast
5:30 AM 66.2 °F - 60.8 °F 83% 30.09 in 6.2 mi SSW 10.4 mph - N/A   Overcast
6:00 AM 66.2 °F - 60.8 °F 83% 30.09 in 6.2 mi SSW 6.9 mph - N/A   Overcast
6:30 AM 66.2 °F - 60.8 °F 83% 30.09 in 6.2 mi SSW 6.9 mph - N/A   Overcast
7:00 AM 66.2 °F - 60.8 °F 83% 30.09 in 6.2 mi South 4.6 mph - N/A   Overcast
7:30 AM 66.2 °F - 60.8 °F 83% 30.12 in 6.2 mi SSW 2.3 mph - N/A   Overcast
8:00 AM 68.0 °F - 60.8 °F 78% 30.12 in 6.2 mi Calm Calm - N/A   Overcast
8:30 AM 68.0 °F - 60.8 °F 78% 30.12 in 6.2 mi SW 5.8 mph - N/A   Overcast
9:00 AM 68.0 °F - 60.8 °F 78% 30.12 in 6.2 mi SSW 5.8 mph - N/A   Overcast
9:30 AM 68.0 °F - 60.8 °F 78% 30.15 in 6.2 mi SSW 6.9 mph - N/A   Overcast
10:00 AM 69.8 °F - 60.8 °F 73% 30.15 in 6.2 mi SSW 6.9 mph - N/A   Overcast
10:30 AM 69.8 °F - 60.8 °F 73% 30.15 in 6.2 mi SSW 6.9 mph - N/A   Overcast
11:00 AM 69.8 °F - 60.8 °F 73% 30.12 in 6.2 mi South 5.8 mph - N/A   Overcast
11:30 AM 71.6 °F - 60.8 °F 69% 30.12 in 6.2 mi WSW 3.5 mph - N/A   Overcast
12:00 PM 73.4 °F - 60.8 °F 65% 30.12 in 6.2 mi SSW 4.6 mph - N/A   Overcast
12:30 PM 75.2 °F - 62.6 °F 65% 30.09 in 6.2 mi South 2.3 mph - N/A   Unknown
1:00 PM 77.0 °F - 62.6 °F 61% 30.09 in 6.2 mi ESE 2.3 mph - N/A   Mostly Cloudy
1:30 PM 77.0 °F - 62.6 °F 61% 30.09 in 6.2 mi East 6.9 mph - N/A   Mostly Cloudy
2:00 PM 78.8 °F - 62.6 °F 57% 30.06 in 6.2 mi NNE 2.3 mph - N/A   Mostly Cloudy
2:30 PM 77.0 °F - 60.8 °F 57% 30.06 in 6.2 mi NE 5.8 mph - N/A   Overcast
3:00 PM 78.8 °F - 62.6 °F 57% 30.04 in 6.2 mi NE 4.6 mph - N/A   Overcast
3:30 PM 78.8 °F - 60.8 °F 54% 30.04 in 6.2 mi East 3.5 mph - N/A   Scattered Clouds
4:00 PM 80.6 °F 81.5 °F 60.8 °F 51% 30.01 in 6.2 mi NE 6.9 mph - N/A   Scattered Clouds
4:30 PM 80.6 °F 81.5 °F 60.8 °F 51% 30.01 in 6.2 mi ENE 8.1 mph - N/A   Scattered Clouds
5:00 PM 78.8 °F - 60.8 °F 54% 30.01 in 6.2 mi East 9.2 mph - N/A   Mostly Cloudy
5:30 PM 78.8 °F - 60.8 °F 54% 30.01 in 6.2 mi East 4.6 mph - N/A   Scattered Clouds
6:00 PM 78.8 °F - 60.8 °F 54% 30.01 in 6.2 mi East 6.9 mph - N/A   Unknown
6:30 PM 77.0 °F - 62.6 °F 61% 30.04 in 6.2 mi ENE 8.1 mph - N/A   Scattered Clouds
7:00 PM 75.2 °F - 64.4 °F 69% 30.04 in 6.2 mi ENE 6.9 mph - N/A   Overcast
7:30 PM 73.4 °F - 64.4 °F 73% 30.06 in 6.2 mi ENE 8.1 mph - N/A   Mostly Cloudy
8:00 PM 71.6 °F - 62.6 °F 73% 30.06 in 6.2 mi East 9.2 mph - N/A   Scattered Clouds
8:30 PM 71.6 °F - 64.4 °F 78% 30.06 in 6.2 mi East 4.6 mph - N/A   Mostly Cloudy
9:00 PM 71.6 °F - 64.4 °F 78% 30.06 in 6.2 mi East 5.8 mph - N/A   Scattered Clouds
9:30 PM 71.6 °F - 66.2 °F 83% 30.09 in 6.2 mi Calm Calm - N/A   Mostly Cloudy
10:00 PM 69.8 °F - 66.2 °F 88% 30.09 in 6.2 mi ENE 3.5 mph - N/A   Overcast
10:30 PM 69.8 °F - 66.2 °F 88% 30.09 in 6.2 mi Calm Calm - N/A   Overcast
11:00 PM 69.8 °F - 66.2 °F 88% 30.06 in 6.2 mi Calm Calm - N/A   Overcast
11:30 PM 69.8 °F - 66.2 °F 88% 30.06 in 6.2 mi Calm Calm - N/A   Scattered Clouds